Greenwood, SC

5:22 AM EDT on March 23, 2017 (GMT -0400)
Greenwood County

Weather History for KGRD - October, 2013

Change the Weather History Date:

Friday, October 25, 2013

  Actual Average (KAND) Record (KAND)
Temperature  
Mean Temperature 46 °F -  
Max Temperature 57 °F 69 °F 85 °F (1984)
Min Temperature 35 °F 49 °F 30 °F (1965)
Degree Days  
Heating Degree Days 19    
Moisture  
Dew Point 33 °F    
Average Humidity 66    
Maximum Humidity 93    
Minimum Humidity 29    
Precipitation  
Precipitation 0.00 in - - ()
Sea Level Pressure  
Sea Level Pressure 30.31 in    
Wind  
Wind Speed 4 mph (North)    
Max Wind Speed 12 mph    
Max Gust Speed 17 mph    
Visibility 10 miles    
Events      
Averages and records for this station are not official NWS values.
T = Trace of Precipitation, MM = Missing Value Source: NWS Daily Summary

Daily Weather History Graph

Daily Weather History Graph

Search for Another Location

Airport or City:

Trip Planner

Search our weather history database for the weather conditions in past years. The results will help you decide how hot, cold, wet, or windy it might be!

Date:

Astronomy

Oct. 25, 2013 Rise Set
Actual Time 7:42 AM EDT 6:42 PM EDT
Civil Twilight 7:16 AM EDT 7:07 PM EDT
Nautical Twilight 6:47 AM EDT 7:37 PM EDT
Astronomical Twilight 6:18 AM EDT 8:06 PM EDT
Moon No Moon Rise 1:17 PM EDT (10/25)
Length of Visible Light 11h 51m
Length of Day
10h 59m
Waning Gibbous, 62% of the Moon is Illuminated
Oct 25
Waning Gibbous
Oct 26
Last Quarter
Nov 3
New
Nov 10
First Quarter
Nov 17
Full

Hourly Weather History & Observations

Time (EDT) Temp. Windchill Dew Point Humidity Pressure Visibility Wind Dir Wind Speed Gust Speed Precip Events Conditions
12:56 AM 50.0 °F - 39.0 °F 66% 30.18 in 10.0 mi West 4.6 mph - N/A   Clear
1:56 AM 44.1 °F 42.5 °F 39.0 °F 82% 30.19 in 10.0 mi NNE 3.5 mph - N/A   Clear
2:56 AM 41.0 °F - 39.0 °F 93% 30.21 in 10.0 mi Calm Calm - N/A   Partly Cloudy
3:56 AM 41.0 °F 39.0 °F 37.9 °F 89% 30.22 in 10.0 mi NW 3.5 mph - N/A   Partly Cloudy
4:56 AM 39.0 °F 36.8 °F 36.0 °F 89% 30.22 in 10.0 mi NNW 3.5 mph - N/A   Clear
5:56 AM 39.9 °F 36.7 °F 37.0 °F 89% 30.25 in 10.0 mi NNW 4.6 mph - N/A   Clear
6:56 AM 39.0 °F - 36.0 °F 89% 30.29 in 10.0 mi Calm Calm - N/A   Clear
7:56 AM 37.9 °F 35.5 °F 34.0 °F 86% 30.31 in 10.0 mi North 3.5 mph - N/A   Clear
8:56 AM 43.0 °F 39.5 °F 37.0 °F 80% 30.34 in 10.0 mi North 5.8 mph - N/A   Clear
9:56 AM 46.9 °F - 35.1 °F 63% 30.36 in 10.0 mi NNE 8.1 mph - N/A   Clear
10:56 AM 51.1 °F - 32.0 °F 48% 30.36 in 10.0 mi NNE 11.5 mph 17.3 mph N/A   Clear
11:56 AM 53.1 °F - 30.0 °F 41% 30.38 in 10.0 mi North 10.4 mph - N/A   Clear
12:56 PM 54.0 °F - 28.9 °F 38% 30.36 in 10.0 mi North 6.9 mph - N/A   Clear
1:56 PM 55.0 °F - 28.9 °F 37% 30.34 in 10.0 mi Variable 5.8 mph 17.3 mph N/A   Clear
2:56 PM 57.0 °F - 28.0 °F 33% 30.32 in 10.0 mi North 8.1 mph - N/A   Clear
3:56 PM 57.0 °F - 25.0 °F 29% 30.32 in 10.0 mi North 5.8 mph - N/A   Clear
4:56 PM 55.9 °F - 26.1 °F 32% 30.32 in 10.0 mi Variable 4.6 mph - N/A   Clear
5:56 PM 54.0 °F - 26.1 °F 34% 30.33 in 10.0 mi North 6.9 mph - N/A   Clear
6:56 PM 45.0 °F - 33.1 °F 63% 30.34 in 10.0 mi Calm Calm - N/A   Clear
7:56 PM 41.0 °F - 32.0 °F 70% 30.35 in 10.0 mi Calm Calm - N/A   Clear
8:56 PM 37.9 °F - 32.0 °F 79% 30.36 in 10.0 mi Calm Calm - N/A   Clear
9:56 PM 36.0 °F - 30.9 °F 82% 30.38 in 10.0 mi Calm Calm - N/A   Clear
10:56 PM 35.1 °F 31.0 °F 30.9 °F 85% 30.39 in 10.0 mi NNE 4.6 mph - N/A   Clear
11:56 PM 35.1 °F 31.0 °F 30.9 °F 85% 30.38 in 10.0 mi North 4.6 mph - N/A   Clear